When you browse on this site, cookies collect data to enhance your experience and personalize the content and advertising you see.
Visit our Privacy Policy to learn more. By continuing to use the site, you agree to this use of cookies and data.
  • în România
  • Lista ţărilor
  • Pe 7 zile
  • Temperatura apei
  • Meteo pe hartă
  • Widget-uri
  • user-avatar
    Intrare

    Meteo pe oră la As-Salt

    Astăzi, 27 Februarie, Joi

    Timp Temperatura Precipitaţii Vânt Presiune Umiditate
    00:00 +10°C° 0 mm 1 m/s 716 mmHg 86%
    01:00 +10°C° 0 mm 1 m/s 716 mmHg 86%
    02:00 +9°C° 0 mm 1 m/s 716 mmHg 86%
    03:00 +9°C° 0 mm 1 m/s 716 mmHg 85%
    04:00 +9°C° 0 mm 1 m/s 716 mmHg 85%
    05:00 +9°C° 0 mm 1 m/s 716 mmHg 84%
    06:00 +9°C° 0 mm 2 m/s 716 mmHg 79%
    07:00 +10°C° 0 mm 2 m/s 716 mmHg 73%
    08:00 +11°C° 0 mm 3 m/s 717 mmHg 68%
    09:00 +13°C° 0 mm 3 m/s 717 mmHg 62%
    10:00 +14°C° 0 mm 3 m/s 717 mmHg 55%
    11:00 +17°C° 0 mm 3 m/s 717 mmHg 48%
    12:00 +18°C° 0 mm 2 m/s 716 mmHg 46%
    13:00 +18°C° 0 mm 2 m/s 716 mmHg 43%
    14:00 +19°C° 0 mm 2 m/s 715 mmHg 41%
    15:00 +19°C° 0 mm 1 m/s 715 mmHg 45%
    16:00 +18°C° 0 mm 1 m/s 715 mmHg 49%
    17:00 +18°C° 0 mm 1 m/s 715 mmHg 53%
    18:00 +16°C° 0 mm 1 m/s 715 mmHg 55%
    19:00 +15°C° 0 mm 1 m/s 714 mmHg 57%
    20:00 +14°C° 0 mm 1 m/s 714 mmHg 60%
    21:00 +13°C° 0 mm 1 m/s 714 mmHg 61%
    22:00 +13°C° 0 mm 1 m/s 714 mmHg 62%
    23:00 +13°C° 0 mm 1 m/s 714 mmHg 63%

    Mâine, 28 Februarie, Vineri

    Timp Temperatura Precipitaţii Vânt Presiune Umiditate
    00:00 +12°C° 0 mm 1 m/s 714 mmHg 63%
    01:00 +12°C° 0 mm 1 m/s 713 mmHg 64%
    02:00 +12°C° 0 mm 1 m/s 713 mmHg 64%
    03:00 +12°C° 0 mm 1 m/s 713 mmHg 64%
    04:00 +12°C° 0 mm 1 m/s 713 mmHg 64%
    05:00 +11°C° 0 mm 1 m/s 713 mmHg 64%
    06:00 +13°C° 0 mm 1 m/s 713 mmHg 59%
    07:00 +14°C° 0 mm 1 m/s 713 mmHg 55%
    08:00 +15°C° 0 mm 1 m/s 713 mmHg 51%
    09:00 +16°C° 0 mm 1 m/s 713 mmHg 47%
    10:00 +17°C° 0 mm 2 m/s 714 mmHg 44%
    11:00 +18°C° 0 mm 2 m/s 714 mmHg 41%
    12:00 +19°C° 0 mm 2 m/s 713 mmHg 39%
    13:00 +19°C° 0 mm 2 m/s 713 mmHg 37%
    14:00 +20°C° 0 mm 3 m/s 712 mmHg 35%
    15:00 +19°C° 0 mm 2 m/s 712 mmHg 40%
    16:00 +19°C° 0 mm 2 m/s 712 mmHg 44%
    17:00 +18°C° 0 mm 2 m/s 712 mmHg 49%
    18:00 +18°C° 0 mm 1 m/s 712 mmHg 53%
    19:00 +16°C° 0 mm 1 m/s 712 mmHg 57%
    20:00 +14°C° 0 mm 1 m/s 712 mmHg 61%
    21:00 +14°C° 0 mm 1 m/s 712 mmHg 60%
    22:00 +14°C° 0 mm 1 m/s 712 mmHg 59%
    23:00 +13°C° 0 mm 1 m/s 712 mmHg 58%

    Poimâine, 29 Februarie, Sâmbătă

    Timp Temperatura Precipitaţii Vânt Presiune Umiditate
    00:00 +13°C° 0 mm 1 m/s 711 mmHg 57%
    01:00 +13°C° 0 mm 1 m/s 711 mmHg 56%
    02:00 +13°C° 0 mm 2 m/s 711 mmHg 56%
    03:00 +12°C° 0 mm 2 m/s 711 mmHg 56%
    04:00 +12°C° 0 mm 2 m/s 711 mmHg 56%
    05:00 +12°C° 0 mm 2 m/s 711 mmHg 57%
    06:00 +11°C° 0 mm 3 m/s 711 mmHg 61%
    07:00 +12°C° 0 mm 3 m/s 712 mmHg 65%
    08:00 +12°C° 0 mm 3 m/s 712 mmHg 69%
    09:00 +12°C° 0.1 mm 4 m/s 712 mmHg 68%
    10:00 +13°C° 0.1 mm 6 m/s 712 mmHg 68%
    11:00 +12°C° 0.1 mm 7 m/s 712 mmHg 67%
    12:00 +12°C° 0 mm 7 m/s 712 mmHg 64%
    13:00 +12°C° 0 mm 8 m/s 712 mmHg 62%
    14:00 +12°C° 0 mm 8 m/s 711 mmHg 59%
    15:00 +12°C° 0 mm 8 m/s 712 mmHg 62%
    16:00 +11°C° 0 mm 7 m/s 712 mmHg 65%
    17:00 +11°C° 0 mm 7 m/s 712 mmHg 67%
    18:00 +10°C° 0 mm 7 m/s 712 mmHg 72%
    19:00 +10°C° 0 mm 6 m/s 712 mmHg 77%
    20:00 +9°C° 0 mm 6 m/s 712 mmHg 82%
    21:00 +9°C° 0.1 mm 6 m/s 712 mmHg 83%
    22:00 +9°C° 0.1 mm 6 m/s 712 mmHg 84%
    23:00 +9°C° 0.1 mm 7 m/s 712 mmHg 84%

    1 Martie, Duminică

    Timp Temperatura Precipitaţii Vânt Presiune Umiditate
    00:00 +9°C° 0.2 mm 7 m/s 712 mmHg 85%
    01:00 +9°C° 0.2 mm 7 m/s 712 mmHg 85%
    02:00 +8°C° 0.2 mm 7 m/s 712 mmHg 85%
    03:00 +8°C° 0 mm 7 m/s 712 mmHg 82%
    04:00 +7°C° 0 mm 6 m/s 712 mmHg 79%
    05:00 +7°C° 0 mm 6 m/s 712 mmHg 76%
    06:00 +7°C° 0 mm 5 m/s 712 mmHg 74%
    07:00 +8°C° 0 mm 5 m/s 713 mmHg 71%
    08:00 +8°C° 0 mm 5 m/s 714 mmHg 69%
    09:00 +9°C° 0 mm 5 m/s 714 mmHg 66%
    10:00 +10°C° 0 mm 5 m/s 714 mmHg 64%
    11:00 +12°C° 0 mm 5 m/s 714 mmHg 61%
    12:00 +12°C° 0 mm 5 m/s 714 mmHg 57%
    13:00 +13°C° 0 mm 5 m/s 714 mmHg 54%
    14:00 +13°C° 0 mm 6 m/s 714 mmHg 51%
    15:00 +13°C° 0 mm 5 m/s 714 mmHg 54%
    16:00 +12°C° 0 mm 5 m/s 714 mmHg 57%
    17:00 +12°C° 0 mm 4 m/s 714 mmHg 61%
    18:00 +11°C° 0 mm 3 m/s 714 mmHg 65%
    19:00 +10°C° 0 mm 2 m/s 715 mmHg 70%
    20:00 +10°C° 0 mm 1 m/s 715 mmHg 74%
    21:00 +9°C° 0 mm 1 m/s 715 mmHg 76%
    22:00 +9°C° 0 mm 1 m/s 715 mmHg 77%
    23:00 +7°C° 0 mm 0 m/s 715 mmHg 78%

    2 Martie, Luni

    Timp Temperatura Precipitaţii Vânt Presiune Umiditate
    00:00 +7°C° 0 mm 0 m/s 715 mmHg 79%
    01:00 +7°C° 0 mm 0 m/s 715 mmHg 80%
    02:00 +6°C° 0 mm 0 m/s 714 mmHg 80%
    03:00 +6°C° 0 mm 0 m/s 714 mmHg 81%
    04:00 +6°C° 0 mm 0 m/s 714 mmHg 81%
    05:00 +5°C° 0 mm 0 m/s 714 mmHg 82%
    06:00 +6°C° 0 mm 0 m/s 715 mmHg 75%
    07:00 +8°C° 0 mm 0 m/s 715 mmHg 69%
    08:00 +9°C° 0 mm 0 m/s 716 mmHg 63%
    09:00 +10°C° 0 mm 0 m/s 716 mmHg 58%
    10:00 +12°C° 0 mm 1 m/s 715 mmHg 53%
    11:00 +13°C° 0 mm 1 m/s 715 mmHg 48%
    12:00 +14°C° 0 mm 1 m/s 715 mmHg 46%
    13:00 +15°C° 0 mm 2 m/s 715 mmHg 44%
    14:00 +15°C° 0 mm 2 m/s 714 mmHg 42%
    15:00 +15°C° 0 mm 2 m/s 714 mmHg 44%
    16:00 +15°C° 0 mm 1 m/s 714 mmHg 46%
    17:00 +15°C° 0 mm 1 m/s 714 mmHg 49%
    18:00 +14°C° 0 mm 1 m/s 715 mmHg 55%
    19:00 +13°C° 0 mm 1 m/s 715 mmHg 62%
    20:00 +12°C° 0 mm 1 m/s 715 mmHg 68%
    21:00 +11°C° 0 mm 1 m/s 715 mmHg 69%
    22:00 +11°C° 0 mm 1 m/s 715 mmHg 70%
    23:00 +10°C° 0 mm 1 m/s 715 mmHg 70%

    3 Martie, Marţi

    Timp Temperatura Precipitaţii Vânt Presiune Umiditate
    00:00 +10°C° 0 mm 1 m/s 715 mmHg 69%
    01:00 +10°C° 0 mm 1 m/s 715 mmHg 67%
    02:00 +9°C° 0 mm 2 m/s 715 mmHg 66%
    03:00 +9°C° 0 mm 2 m/s 715 mmHg 65%
    04:00 +9°C° 0 mm 2 m/s 715 mmHg 64%
    05:00 +8°C° 0 mm 2 m/s 715 mmHg 63%
    06:00 +10°C° 0 mm 2 m/s 715 mmHg 59%
    07:00 +11°C° 0 mm 3 m/s 716 mmHg 56%
    08:00 +12°C° 0 mm 3 m/s 716 mmHg 52%
    09:00 +14°C° 0 mm 3 m/s 716 mmHg 46%
    10:00 +17°C° 0 mm 3 m/s 716 mmHg 40%
    11:00 +19°C° 0 mm 3 m/s 716 mmHg 34%
    12:00 +20°C° 0 mm 3 m/s 716 mmHg 32%
    13:00 +21°C° 0 mm 3 m/s 715 mmHg 29%
    14:00 +23°C° 0 mm 2 m/s 715 mmHg 26%
    15:00 +21°C° 0 mm 2 m/s 715 mmHg 31%
    16:00 +20°C° 0 mm 2 m/s 714 mmHg 36%
    17:00 +20°C° 0 mm 1 m/s 714 mmHg 41%
    18:00 +18°C° 0 mm 2 m/s 714 mmHg 40%
    19:00 +17°C° 0 mm 3 m/s 714 mmHg 39%
    20:00 +16°C° 0 mm 3 m/s 714 mmHg 38%
    21:00 +15°C° 0 mm 4 m/s 714 mmHg 37%
    22:00 +15°C° 0 mm 4 m/s 714 mmHg 36%
    23:00 +15°C° 0 mm 4 m/s 714 mmHg 34%
    Arată mai mult